Погода в Зейтуне

Мальта     35°51′24″N   14°32′01″E
темп.,
°C
ветер,
м/с
пор.,
м/с
влажн.,
%
обл.,
%
осадки,
мм/ч
давл.,
гПа
погр.,
м
19 мая, ср
ср1923:00+19сз23720 0.0 101735
02:00+19сз22716 0.0 101635
05:00+19зсз45755 0.0 1015136
08:00+19зсз68695 0.0 1016183
11:00+21сз686210 0.0 1017137
14:00+21зсз57641 0.0 1016120
17:00+20зсз79714 0.0 1015212
20:00+19зсз711765 0.0 1015199
20 мая, чт
чт2023:00+19сз597896 0.0 1016200
02:00+19зсз6108143 0.0 1015221
05:00+19сз9157337 0.0 1015373
08:00+19сз10147496 0.4 1016445
11:00+19сз10136682 0.0 1017543
14:00+19сз1114640 0.0 1017549
17:00+18зсз1114735 0.0 1016576
20:00+18сз1015710 0.0 1017624
21 мая, пт
пт2123:00+18сз111475100 0.0 1018770
02:00+18ссв91177100 0.0 1018601
05:00+18св687947 0.0 1019585
08:00+18всв677790 0.0 1020707
11:00+19вюв4471100 0.0 1022625
14:00+19вюв43655 0.0 1021433
17:00+19ю336864 0.0 1020525
20:00+19ю447380 0.0 1020345
22 мая, сб
сб2223:00+19ю3479100 0.0 1021229
02:00+19ю45785 0.0 1020388
05:00+19ю45785 0.0 1019407
08:00+19ю45805 0.0 1019496
11:00+19ю55784 0.0 1020447
14:00+19ю67802 0.0 1019468
17:00+19ю678172 0.0 1018418
20:00+19ююв68847 0.0 1017279
23 мая, вс
вс2323:00+19ююв58855 0.0 1018230
02:00+19ююв45845 0.0 1017136
05:00+19ю33830 0.0 101660
08:00+20ю33802 0.0 101862
11:00+20ю44775 0.0 1018155
14:00+21ююв55750 0.0 1018143
17:00+21ююв45755 0.0 1017150
20:00+21ююв45785 0.0 101771